KD5NDU-15 Weather Reports


time (UTC)temp
F
wind
direction
speed
knots
gust
knots
rain 1hr
in
rain 24hr
in
rain mn
in
humidity
%
barometer
mb
20260902022137 86 89 0.0 0.9 0.00 0.00 0.00 70 1016.9
20260902021637 86 89 0.0 1.7 0.00 0.00 0.00 69 1016.9
20260902021137 86 90 0.0 0.9 0.00 0.00 0.00 70 1017.0
20260902020637 86 89 0.0 1.7 0.00 0.00 0.00 70 1017.0
20260902020137 86 78 0.0 1.7 0.00 0.00 0.00 69 1016.8
20260902015637 85 78 0.0 2.6 0.00 0.00 0.00 70 1016.6
20260902015137 85 198 0.0 0.0 0.00 0.00 0.00 69 1016.5
20260902014637 86 203 0.0 0.0 0.00 0.00 0.00 69 1016.5
20260902014137 86 203 0.0 0.0 0.00 0.00 0.00 69 1016.5
20260902013637 86 203 0.0 0.0 0.00 0.00 0.00 70 1016.2
20260902013137 86 203 0.0 0.0 0.00 0.00 0.00 69 1016.2
20260902012637 86 203 0.0 0.0 0.00 0.00 0.00 69 1016.2
20260902012137 86 204 0.0 0.0 0.00 0.00 0.00 69 1016.2
20260902011637 86 204 0.0 0.0 0.00 0.00 0.00 70 1016.0
20260902011137 87 204 0.0 0.0 0.00 0.00 0.00 70 1016.0
20260902010637 87 204 0.0 0.0 0.00 0.00 0.00 68 1016.0
20260902010137 88 204 0.0 0.0 0.00 0.00 0.00 67 1016.1
20260902005637 88 204 0.0 0.0 0.00 0.00 0.00 66 1016.1
20260902005137 88 204 0.0 0.0 0.00 0.00 0.00 65 1016.1
20260902004637 89 204 0.0 0.0 0.00 0.00 0.00 64 1016.1
20260902004137 89 204 0.0 0.0 0.00 0.00 0.00 63 1016.1
20260902003637 90 204 0.0 0.0 0.00 0.00 0.00 62 1016.2
20260902003137 90 204 0.0 0.0 0.00 0.00 0.00 62 1016.1
20260902002637 91 204 0.0 0.0 0.00 0.00 0.00 60 1016.0
20260902002137 91 204 0.0 0.0 0.00 0.00 0.00 60 1015.9
20260902001637 91 204 0.0 0.9 0.00 0.00 0.00 59 1015.9
20260902001137 92 204 0.0 0.9 0.00 0.00 0.00 59 1015.9
20260902000637 92 204 0.9 1.7 0.00 0.00 0.00 58 1015.9
20260902000137 92 204 0.9 2.6 0.00 0.00 0.00 58 1015.9
20260901235637 93 214 1.7 2.6 0.00 0.00 0.00 58 1015.9
20260901235137 93 192 1.7 3.5 0.00 0.00 0.00 57 1016.0
20260901234637 93 193 1.7 3.5 0.00 0.00 0.00 56 1016.0
20260901234137 94 203 1.7 4.3 0.00 0.00 0.00 55 1016.1
20260901233637 94 213 1.7 5.2 0.00 0.00 0.00 55 1016.1
20260901233137 94 185 1.7 4.3 0.00 0.00 0.00 54 1016.1
20260901232638 94 238 1.7 3.5 0.00 0.00 0.00 55 1016.2
20260901232138 95 208 1.7 4.3 0.00 0.00 0.00 54 1016.2
20260901231638 95 186 1.7 4.3 0.00 0.00 0.00 53 1016.3
20260901231138 95 160 1.7 5.2 0.00 0.00 0.00 53 1016.3
20260901230638 95 160 1.7 3.5 0.00 0.00 0.00 53 1016.3
20260901230138 96 99 1.7 4.3 0.00 0.00 0.00 53 1016.2
20260901225638 96 152 1.7 3.5 0.00 0.00 0.00 53 1016.2
20260901225138 96 117 1.7 3.5 0.00 0.00 0.00 52 1016.2
20260901224638 97 178 1.7 1.7 0.00 0.00 0.00 52 1016.3
20260901224138 97 165 1.7 3.5 0.00 0.00 0.00 52 1016.3
20260901223638 97 170 1.7 4.3 0.00 0.00 0.00 52 1016.3
20260901223138 97 82 1.7 3.5 0.00 0.00 0.00 52 1016.3
20260901222638 97 172 1.7 5.2 0.00 0.00 0.00 51 1016.1
20260901222138 98 137 2.6 6.1 0.00 0.00 0.00 51 1016.2
20260901221638 98 138 1.7 3.5 0.00 0.00 0.00 50 1016.2
20260901221138 98 194 1.7 4.3 0.00 0.00 0.00 50 1016.1
20260901220638 98 129 2.6 4.3 0.00 0.00 0.00 50 1016.2
20260901220138 98 252 2.6 4.3 0.00 0.00 0.00 50 1016.2
20260901215638 98 207 1.7 7.0 0.00 0.00 0.00 49 1016.3
20260901215138 98 85 1.7 3.5 0.00 0.00 0.00 49 1016.3
20260901214638 98 162 2.6 7.0 0.00 0.00 0.00 51 1016.4
20260901214138 98 135 2.6 8.7 0.00 0.00 0.00 50 1016.4
20260901213638 99 154 1.7 8.7 0.00 0.00 0.00 50 1016.5
20260901213138 99 157 1.7 5.2 0.00 0.00 0.00 51 1016.4
20260901212638 99 72 1.7 5.2 0.00 0.00 0.00 51 1016.4
20260901212138 98 164 2.6 6.1 0.00 0.00 0.00 51 1016.4
20260901211638 97 113 3.5 5.2 0.00 0.00 0.00 52 1016.4
20260901211138 97 167 2.6 7.8 0.00 0.00 0.00 52 1016.5
20260901210638 97 155 2.6 4.3 0.00 0.00 0.00 51 1016.5
20260901210138 97 23 2.6 7.0 0.00 0.00 0.00 51 1016.6
20260901205638 97 153 2.6 8.7 0.00 0.00 0.00 52 1016.6
20260901205138 97 12 2.6 7.0 0.00 0.00 0.00 52 1016.6
20260901204638 98 194 2.6 7.0 0.00 0.00 0.00 50 1016.7
20260901204138 99 136 2.6 7.0 0.00 0.00 0.00 49 1016.8
20260901203638 100 119 1.7 4.3 0.00 0.00 0.00 49 1016.7
20260901203138 99 151 2.6 5.2 0.00 0.00 0.00 49 1016.7
20260901202638 98 359 2.6 7.8 0.00 0.00 0.00 50 1016.8
20260901202138 98 179 2.6 7.0 0.00 0.00 0.00 50 1016.9
20260901201638 98 183 2.6 7.0 0.00 0.00 0.00 51 1017.0
20260901201138 97 61 2.6 5.2 0.00 0.00 0.00 52 1017.1
20260901200638 97 77 1.7 7.0 0.00 0.00 0.00 52 1017.0
20260901200138 96 125 2.6 5.2 0.00 0.00 0.00 54 1017.2
20260901195638 96 144 2.6 7.0 0.00 0.00 0.00 53 1017.2
20260901195138 97 37 1.7 5.2 0.00 0.00 0.00 52 1017.1
20260901194638 97 334 1.7 6.1 0.00 0.00 0.00 51 1017.2
20260901194138 96 180 1.7 3.5 0.00 0.00 0.00 50 1017.3
20260901193638 97 157 1.7 5.2 0.00 0.00 0.00 48 1017.5
20260901193138 98 104 1.7 5.2 0.00 0.00 0.00 49 1017.3
20260901192638 99 230 0.9 4.3 0.00 0.00 0.00 48 1017.3
20260901192138 100 229 1.7 3.5 0.00 0.00 0.00 46 1017.5
20260901191638 99 238 2.6 3.5 0.00 0.00 0.00 48 1017.6
20260901191138 98 199 2.6 5.2 0.00 0.00 0.00 48 1017.6
20260901190638 97 125 1.7 5.2 0.00 0.00 0.00 50 1017.6
20260901190138 96 214 0.9 4.3 0.00 0.00 0.00 54 1017.7
20260901185638 95 119 0.9 2.6 0.00 0.00 0.00 54 1017.8
20260901185138 95 232 1.7 3.5 0.00 0.00 0.00 54 1017.8
20260901184638 95 174 1.7 3.5 0.00 0.00 0.00 53 1017.9
20260901184138 96 160 2.6 5.2 0.00 0.00 0.00 51 1017.9
20260901183638 96 237 2.6 7.0 0.00 0.00 0.00 52 1017.9
20260901183138 95 182 2.6 4.3 0.00 0.00 0.00 53 1018.0
20260901182638 95 231 2.6 5.2 0.00 0.00 0.00 54 1018.0
20260901182138 95 238 2.6 4.3 0.00 0.00 0.00 54 1018.1
20260901181638 96 206 2.6 4.3 0.00 0.00 0.00 52 1018.2
20260901181138 98 266 1.7 4.3 0.00 0.00 0.00 51 1018.2
20260901180638 98 33 1.7 4.3 0.00 0.00 0.00 53 1018.3
20260901180138 99 185 1.7 3.5 0.00 0.00 0.00 51 1018.5
20260901175638 99 23 1.7 3.5 0.00 0.00 0.00 52 1018.5
20260901175138 99 0 0.9 3.5 0.00 0.00 0.00 53 1018.5
20260901174638 98 27 0.9 2.6 0.00 0.00 0.00 55 1018.6
20260901174138 97 134 1.7 4.3 0.00 0.00 0.00 54 1018.7
20260901173638 97 198 1.7 5.2 0.00 0.00 0.00 55 1018.7
20260901173138 97 175 1.7 3.5 0.00 0.00 0.00 56 1018.9
20260901172638 97 175 2.6 4.3 0.00 0.00 0.00 55 1018.9
20260901172138 97 135 2.6 6.1 0.00 0.00 0.00 56 1018.9
20260901171638 96 230 2.6 6.1 0.00 0.00 0.00 56 1019.0
20260901171138 96 258 3.5 7.0 0.00 0.00 0.00 57 1019.0
20260901170638 96 191 3.5 7.8 0.00 0.00 0.00 57 1019.0
20260901170138 96 236 3.5 5.2 0.00 0.00 0.00 57 1019.2
20260901165638 97 238 2.6 6.1 0.00 0.00 0.00 56 1019.2
20260901165138 97 24 2.6 5.2 0.00 0.00 0.00 57 1019.2
20260901164638 96 252 2.6 4.3 0.00 0.00 0.00 58 1019.0
20260901164138 95 162 0.9 7.0 0.00 0.00 0.00 59 1019.0
20260901163638 94 209 1.7 2.6 0.00 0.00 0.00 62 1019.0
20260901163138 94 212 1.7 5.2 0.00 0.00 0.00 61 1019.2
20260901162638 93 200 2.6 3.5 0.00 0.00 0.00 63 1019.2
20260901162138 93 240 2.6 4.3 0.00 0.00 0.00 61 1019.2
20260901161638 93 259 1.7 3.5 0.00 0.00 0.00 60 1019.3
20260901161138 93 131 1.7 2.6 0.00 0.00 0.00 60 1019.3
20260901160638 94 205 2.6 5.2 0.00 0.00 0.00 61 1019.3
20260901160138 93 231 2.6 6.1 0.00 0.00 0.00 62 1019.3
20260901155638 93 236 3.5 5.2 0.00 0.00 0.00 61 1019.4
20260901155138 94 175 2.6 6.1 0.00 0.00 0.00 63 1019.5
20260901154638 94 200 1.7 5.2 0.00 0.00 0.00 61 1019.5
20260901154138 95 198 0.9 3.5 0.00 0.00 0.00 61 1019.7
20260901153638 95 3 0.9 1.7 0.00 0.00 0.00 62 1019.8
20260901153138 94 307 0.9 2.6 0.00 0.00 0.00 64 1019.8
20260901152638 94 45 0.9 2.6 0.00 0.00 0.00 65 1019.9
20260901152138 93 222 0.9 0.9 0.00 0.00 0.00 67 1019.9
20260901151638 92 221 1.7 2.6 0.00 0.00 0.00 68 1019.7
20260901151138 92 231 1.7 4.3 0.00 0.00 0.00 68 1019.6
20260901150638 92 218 0.9 3.5 0.00 0.00 0.00 69 1019.7
20260901150138 92 130 0.0 2.6 0.00 0.00 0.00 69 1019.6
20260901145638 91 162 0.9 1.7 0.00 0.00 0.00 68 1019.6
20260901145138 91 229 0.9 2.6 0.00 0.00 0.00 69 1019.6
20260901144638 90 153 0.9 2.6 0.00 0.00 0.00 71 1019.6
20260901144138 90 1 0.9 1.7 0.00 0.00 0.00 71 1019.8
20260901143638 89 244 0.9 2.6 0.00 0.00 0.00 72 1019.6
20260901143138 89 257 0.9 0.9 0.00 0.00 0.00 75 1019.5
20260901142638 88 257 0.9 2.6 0.00 0.00 0.00 75 1019.5
20260901142138 87 250 0.9 2.6 0.00 0.00 0.00 76 1019.4
20260901141638 87 259 0.9 0.9 0.00 0.00 0.00 76 1019.5
20260901141138 86 257 0.9 3.5 0.00 0.00 0.00 77 1019.6
20260901140638 86 214 0.0 0.9 0.00 0.00 0.00 77 1019.6
20260901140138 86 214 0.0 0.9 0.00 0.00 0.00 79 1019.6
20260901135638 85 212 0.0 1.7 0.00 0.00 0.00 80 1019.7
20260901135138 83 211 0.9 0.9 0.00 0.00 0.00 81 1019.8
20260901134638 83 211 0.9 2.6 0.00 0.00 0.00 82 1019.6
20260901134138 82 212 0.9 1.7 0.00 0.00 0.00 82 1019.5
20260901133638 81 212 0.9 1.7 0.00 0.00 0.00 85 1019.6
20260901133138 80 217 0.9 1.7 0.00 0.00 0.00 87 1019.6
20260901132638 79 217 0.9 2.6 0.00 0.00 0.00 89 1019.5
20260901132138 78 217 0.9 2.6 0.00 0.00 0.00 90 1019.5
20260901131638 77 217 0.9 2.6 0.00 0.00 0.00 92 1019.4
20260901131138 77 217 0.9 2.6 0.00 0.00 0.00 92 1019.4
20260901130638 76 217 0.9 0.0 0.00 0.00 0.00 94 1019.3
20260901130138 75 216 0.9 3.5 0.00 0.00 0.00 94 1019.2
20260901125638 75 214 0.0 2.6 0.00 0.00 0.00 94 1019.2
20260901125138 74 163 0.0 0.0 0.00 0.00 0.00 94 1019.2
20260901124638 73 163 0.0 0.0 0.00 0.00 0.00 95 1019.2
20260901124138 73 163 0.0 0.0 0.00 0.00 0.00 94 1019.3
20260901123638 73 163 0.0 0.0 0.00 0.00 0.00 95 1019.3
20260901123138 72 163 0.0 0.0 0.00 0.00 0.00 95 1019.2
20260901122638 72 163 0.0 0.0 0.00 0.00 0.00 95 1019.2
20260901122138 72 163 0.0 0.0 0.00 0.00 0.00 95 1019.2
20260901121638 72 163 0.0 0.0 0.00 0.00 0.00 95 1019.1
20260901121138 72 163 0.0 0.0 0.00 0.00 0.00 95 1019.0
20260901120638 71 163 0.0 0.0 0.00 0.00 0.00 95 1019.1
20260901120138 71 165 0.0 0.0 0.00 0.00 0.00 95 1019.0
20260901115638 71 165 0.0 0.0 0.00 0.00 0.00 95 1018.9
20260901115138 71 165 0.0 0.0 0.00 0.00 0.00 95 1018.8
20260901114638 71 165 0.0 0.0 0.00 0.00 0.00 95 1018.9
20260901114138 71 165 0.0 0.0 0.00 0.00 0.00 95 1018.8
20260901113638 71 165 0.0 0.9 0.00 0.00 0.00 95 1018.8
20260901113138 71 163 0.0 0.0 0.00 0.00 0.00 95 1018.7
20260901112638 71 163 0.0 0.0 0.00 0.00 0.00 95 1018.7
20260901112138 71 163 0.0 0.0 0.00 0.00 0.00 95 1018.6
20260901111638 71 163 0.0 0.0 0.00 0.00 0.00 95 1018.7
20260901111138 71 109 0.0 0.0 0.00 0.00 0.00 95 1018.5
20260901110638 71 109 0.0 0.0 0.00 0.00 0.00 94 1018.6
20260901110138 71 109 0.0 0.9 0.00 0.00 0.00 94 1018.5
20260901105639 72 108 0.0 0.0 0.00 0.00 0.00 94 1018.4
20260901105138 72 108 0.0 0.9 0.00 0.00 0.00 94 1018.4
20260901104639 72 102 0.0 0.0 0.00 0.00 0.00 94 1018.4
20260901104138 73 101 0.0 0.0 0.00 0.00 0.00 93 1018.3
20260901103639 74 101 0.0 0.0 0.00 0.00 0.00 93 1018.2
20260901103139 74 101 0.0 0.0 0.00 0.00 0.00 93 1018.2
20260901102639 74 102 0.0 0.0 0.00 0.00 0.00 93 1018.0
20260901102139 74 102 0.0 0.0 0.00 0.00 0.00 93 1018.1
20260901101639 74 104 0.0 0.0 0.00 0.00 0.00 93 1018.0
20260901101139 74 103 0.0 0.0 0.00 0.00 0.00 93 1018.0
20260901100639 74 104 0.0 0.0 0.00 0.00 0.00 93 1017.9
20260901100139 74 104 0.0 0.0 0.00 0.00 0.00 92 1018.0
20260901095639 74 103 0.0 0.0 0.00 0.00 0.00 92 1017.9
20260901095139 74 104 0.0 0.0 0.00 0.00 0.00 92 1017.9
20260901094639 74 103 0.0 0.0 0.00 0.00 0.00 91 1017.8
20260901094139 75 104 0.0 0.0 0.00 0.00 0.00 91 1017.9
20260901093639 75 104 0.0 1.7 0.00 0.00 0.00 91 1017.8
20260901093139 75 103 0.0 2.6 0.00 0.00 0.00 92 1018.0
20260901092639 75 126 0.0 1.7 0.00 0.00 0.00 92 1017.8
20260901092139 74 136 0.0 0.9 0.00 0.00 0.00 92 1017.8
20260901091639 74 136 0.0 0.9 0.00 0.00 0.00 92 1017.9
20260901091139 75 136 0.0 0.9 0.00 0.00 0.00 91 1017.7
20260901090639 75 136 0.0 0.0 0.00 0.00 0.00 91 1017.6
20260901090139 75 136 0.0 0.0 0.00 0.00 0.00 91 1017.7
20260901085639 75 136 0.0 0.0 0.00 0.00 0.00 91 1017.6
20260901085139 76 136 0.0 0.0 0.00 0.00 0.00 90 1017.6
20260901084639 76 136 0.0 0.0 0.00 0.00 0.00 90 1017.6
20260901084139 76 136 0.0 0.0 0.00 0.00 0.00 90 1017.6
20260901083639 76 136 0.0 0.0 0.00 0.00 0.00 90 1017.7
20260901083139 76 136 0.0 0.9 0.00 0.00 0.00 90 1017.6
20260901082639 76 136 0.0 0.9 0.00 0.00 0.00 90 1017.6
20260901082139 76 136 0.0 0.9 0.00 0.00 0.00 91 1017.6
20260901081639 76 136 0.0 0.9 0.00 0.00 0.00 90 1017.6
20260901081139 76 136 0.0 0.0 0.00 0.00 0.00 90 1017.6
20260901080639 76 136 0.0 0.0 0.00 0.00 0.00 90 1017.6
20260901080139 76 136 0.0 0.9 0.00 0.00 0.00 90 1017.6
20260901075639 76 138 0.0 2.6 0.00 0.00 0.00 91 1017.7
20260901075139 75 120 0.0 1.7 0.00 0.00 0.00 91 1017.6
20260901074639 75 143 0.0 1.7 0.00 0.00 0.00 92 1017.6
20260901074139 75 141 0.0 2.6 0.00 0.00 0.00 92 1017.5
20260901073639 75 147 0.0 0.9 0.00 0.00 0.00 92 1017.6
20260901073139 75 147 0.0 1.7 0.00 0.00 0.00 92 1017.6
20260901072639 75 120 0.0 0.0 0.00 0.00 0.00 92 1017.7
20260901072139 75 119 0.0 0.0 0.00 0.00 0.00 92 1017.6
20260901071639 75 113 0.0 0.0 0.00 0.00 0.00 91 1017.6
20260901071139 76 113 0.0 0.0 0.00 0.00 0.00 90 1017.5
20260901070639 76 113 0.0 0.0 0.00 0.00 0.00 90 1017.4
20260901070139 76 113 0.0 0.9 0.00 0.00 0.00 90 1017.4
20260901065639 76 113 0.0 0.9 0.00 0.00 0.00 89 1017.5
20260901065139 76 113 0.0 0.0 0.00 0.00 0.00 89 1017.5
20260901064639 77 113 0.0 0.0 0.00 0.00 0.00 88 1017.6
20260901064139 77 113 0.0 0.9 0.00 0.00 0.00 87 1017.6
20260901063639 78 113 0.0 0.9 0.00 0.00 0.00 87 1017.6
20260901063139 78 113 0.9 1.7 0.00 0.00 0.00 87 1017.7
20260901062639 78 59 0.9 1.7 0.00 0.00 0.00 87 1017.7
20260901062139 78 85 0.9 2.6 0.00 0.00 0.00 87 1017.7
20260901061639 78 115 0.9 2.6 0.00 0.00 0.00 86 1017.7
20260901061139 78 93 0.9 1.7 0.00 0.00 0.00 86 1017.6
20260901060639 78 96 0.9 2.6 0.00 0.00 0.00 86 1017.6
20260901060139 78 85 0.9 2.6 0.00 0.00 0.00 87 1017.6
20260901055639 78 98 0.0 2.6 0.00 0.00 0.00 87 1017.4
20260901055139 78 74 0.0 1.7 0.00 0.00 0.00 87 1017.4
20260901054639 77 72 0.0 0.0 0.00 0.00 0.00 87 1017.6
20260901054139 77 143 0.0 0.0 0.00 0.00 0.00 87 1017.6
20260901053639 77 143 0.0 1.7 0.00 0.00 0.00 87 1017.6
20260901053139 78 143 0.0 0.0 0.00 0.00 0.00 87 1017.6
20260901052639 78 143 0.0 0.9 0.00 0.00 0.00 86 1017.6
20260901052139 78 143 0.0 0.0 0.00 0.00 0.00 86 1017.7
20260901051639 78 143 0.0 1.7 0.00 0.00 0.00 85 1017.6
20260901051139 78 145 0.0 1.7 0.00 0.00 0.00 86 1017.7
20260901050639 78 148 0.0 0.9 0.00 0.00 0.00 85 1017.5
20260901050139 78 148 0.0 0.0 0.00 0.00 0.00 85 1017.6
20260901045639 78 148 0.0 0.0 0.00 0.00 0.00 85 1017.5
20260901045139 78 148 0.0 0.0 0.00 0.00 0.00 85 1017.4
20260901044639 79 148 0.0 0.0 0.00 0.00 0.00 84 1017.5
20260901044139 79 148 0.0 0.0 0.00 0.00 0.00 84 1017.5
20260901043639 79 148 0.0 0.0 0.00 0.00 0.00 83 1017.4
20260901043139 79 148 0.0 0.9 0.00 0.00 0.00 83 1017.4
20260901042639 80 148 0.0 0.9 0.00 0.00 0.00 82 1017.5
20260901042139 80 148 0.0 1.7 0.00 0.00 0.00 82 1017.5
20260901041639 80 161 0.0 1.7 0.00 0.00 0.00 82 1017.4
20260901041139 81 161 0.0 0.9 0.00 0.00 0.00 80 1017.6
20260901040639 81 161 0.0 0.9 0.00 0.00 0.00 80 1017.5
20260901040139 81 141 0.9 1.7 0.00 0.00 0.00 79 1017.4
20260901035639 82 167 0.9 2.6 0.00 0.00 0.00 79 1017.5
20260901035139 82 155 0.9 2.6 0.00 0.00 0.00 78 1017.5
20260901034639 82 153 0.9 1.7 0.00 0.00 0.00 78 1017.6
20260901034139 82 151 0.9 3.5 0.00 0.00 0.00 77 1017.6
20260901033639 82 150 0.9 2.6 0.00 0.00 0.00 77 1017.6
20260901033139 82 102 0.9 2.6 0.00 0.00 0.00 77 1017.6
20260901032639 82 146 0.9 2.6 0.00 0.00 0.00 77 1017.5
20260901032139 82 107 0.9 2.6 0.00 0.00 0.00 77 1017.6
20260901031639 82 106 0.9 2.6 0.00 0.00 0.00 78 1017.7
20260901031139 82 105 0.0 3.5 0.00 0.00 0.00 78 1017.6
20260901030639 82 149 0.0 2.6 0.00 0.00 0.00 78 1017.6
20260901030139 83 168 0.9 1.7 0.00 0.00 0.00 77 1017.7
20260901025639 83 168 0.0 1.7 0.00 0.00 0.00 77 1017.7
20260901025139 83 168 0.0 1.7 0.00 0.00 0.00 77 1017.6
20260901024639 84 168 0.0 0.9 0.00 0.00 0.00 76 1017.7
20260901024139 84 168 0.0 1.7 0.00 0.00 0.00 76 1017.7
20260901023639 84 170 0.9 2.6 0.00 0.00 0.00 75 1017.6
20260901023139 84 194 0.0 1.7 0.00 0.00 0.00 75 1017.5
20260901022639 84 188 0.0 0.9 0.00 0.00 0.00 74 1017.5